SL-16 DEB, 25254

Orbit data source: Space-Track

SL-16 DEB, 25254 is space debris in LEO originally from a launch on Thu, 16 Sep 1993 UTC launched from the Tyuratam Missile And Space Complex (TTMTR). Debris objects in space refer to the collection of defunct objects orbiting the Earth. Examples of debris include non-operational satellites, rocket bodies, and fragments generated from explosions, collisions, or faulty payload assembly.

Loading next visibility...
Identifier
25254, 1993-059H
Orbit
LEO
Country
Flag of CISCIS
Related business
Manufacturer
Unknown
Mission
Spacecraft
Bus & Motor
Unknown
Mass
Unknown
Launch date (UTC)
1993-09-16 (33 years ago)
Launch vehicle
Unknown
Launch site
Tyuratam Missile And Space Complex (TTMTR)
Object type
Payload
Rocket body
Debris
Shape & HBR
Unknown shape, 0.1 m
Radar Cross Section
Medium (>0.1 m² and <1 m²)

Expand to show TLE details & history
Last TLE update: 3 days ago

TLE from 3 days ago
0 SL-16 DEB
1 25254U 93059H   26171.07363759  .00000174  00000-0  97517-4 0  9996
2 25254  70.9873  22.0351 0016938 319.8755 199.8975 14.23712050497993
Epoch: 2026-06-20T01:46Z
TLE epoch observation values (Epoch: 2026-06-20T01:46:02.287Z)
Latitude
19.14944°
Longitude
-99.60347°
Altitude
826.212 km
Speed
7.436 km/s
True Right ascension
13h 00m 47s
True Declination
19° 02' 39"
Sunlit
Object was in daylight at epoch
Visualization orbit readout
Latitude
Unknown
Longitude
Unknown
Altitude
Unknown
Speed
Unknown
Apparent Right ascension
Unknown
Apparent Declination
Unknown
Sunlit
N/A
Visualization observer readout
Local Sidereal Time
00:51:06
Azimuth
Unknown
Elevation
Unknown
Doppler factor
Unknown
Orbital elements
Apogee altitude
822.92 km
Perigee altitude
798.567 km
Semi-major axis
7,188.881 km
Eccentricity
0.00169
Inclination
70.9873°
RAAN
22.0351°
Arg. of periapsis
319.8755°
True anomaly
199.83157°
Mean anomaly
199.8975°
Eccentric anomaly
199.86452°
Mean motion
3.56083 °/min
Orbital period
101.1 mins
BSTAR
0.000097517
Loading maneuver chart data...
Computing Atmospheric mass density...
Loading historical data...
Loading historical data...
Loading historical data...
Loading historical data...
Loading historical data...
Loading historical data...
Loading historical data...

Documentation

Showing up to 5 results
|